CST,Max TemperatureF,Mean TemperatureF,Min TemperatureF,Max Dew PointF,MeanDew PointF,Min DewpointF,Max Humidity, Mean Humidity, Min Humidity, Max Sea Level PressureIn, Mean Sea Level PressureIn, Min Sea Level PressureIn, Max VisibilityMiles, Mean VisibilityMiles, Min VisibilityMiles, Max Wind SpeedMPH, Mean Wind SpeedMPH, Max Gust SpeedMPH,PrecipitationIn, CloudCover, Events, WindDirDegrees
2013-1-1,20,12,3,8,3,-2,81,70,47,30.31,30.24,30.19,10,10,10,12,7,,0.00,0,,338
2013-1-2,38,23,8,26,16,4,86,72,46,30.19,30.09,30.02,10,10,10,17,9,22,0.00,3,Snow,228
2013-1-3,31,21,11,27,16,7,86,76,58,30.38,30.29,30.15,10,10,7,22,11,25,0.00,4,Snow,286
2013-1-4,42,26,10,23,18,7,89,69,40,30.31,30.23,30.19,10,10,7,20,10,25,0.00,0,,233
2013-1-5,41,32,24,32,26,21,86,79,66,30.19,30.07,29.97,10,10,10,23,12,30,0.00,4,,228
2013-1-6,32,24,17,22,15,8,85,69,49,30.30,30.22,30.05,10,10,5,23,14,30,0.00,2,,289
2013-1-7,49,34,19,26,21,15,85,66,32,30.25,30.11,30.02,10,10,10,24,12,30,0.00,0,,194
2013-1-8,49,38,27,32,28,23,86,72,48,30.07,30.00,29.91,10,10,10,22,9,26,0.00,0,,184
2013-1-9,50,39,28,33,29,25,89,73,45,30.44,30.33,30.07,10,10,7,17,10,22,0.00,0,,264
2013-1-10,45,37,29,37,31,22,95,82,41,30.41,30.09,29.72,10,6,0,20,10,26,0.12,5,Fog-Rain-Snow,126
2013-1-11,56,47,38,50,43,37,95,86,65,29.73,29.63,29.53,10,6,0,24,10,33,0.02,4,Fog-Rain,182
2013-1-12,53,37,20,44,22,12,84,70,50,30.08,29.95,29.60,10,10,5,29,17,36,0.00,4,,298
2013-1-13,21,16,10,11,8,5,82,71,58,30.32,30.16,30.01,10,10,10,22,14,26,0.00,3,Snow,301
2013-1-14,29,18,7,12,8,2,83,66,40,30.49,30.41,30.32,10,10,10,9,5,,0.00,0,,247
2013-1-15,33,22,11,16,11,7,84,66,35,30.40,30.29,30.12,10,10,10,10,6,,0.00,1,,190
2013-1-16,46,30,14,32,22,9,88,68,52,30.16,29.99,29.88,10,10,10,22,11,24,0.00,3,,250
2013-1-17,35,26,18,28,18,14,85,70,46,30.45,30.36,30.18,10,10,10,17,10,21,0.00,1,,325
2013-1-18,56,38,20,31,27,16,84,60,35,30.37,30.08,29.91,10,10,10,33,16,44,0.00,0,,211
2013-1-19,55,40,22,32,29,12,76,60,35,30.24,29.94,29.84,10,10,10,32,16,40,0.00,0,,270
2013-1-20,20,12,3,12,7,-1,85,72,55,30.40,30.34,30.24,10,8,1,24,13,29,0.00,4,Snow,323
2013-1-21,9,4,-2,3,-4,-9,81,69,59,30.42,30.36,30.32,10,10,10,22,14,29,0.00,1,,298
2013-1-22,15,7,-1,5,-2,-7,77,64,49,30.44,30.37,30.32,10,10,10,9,5,,0.00,5,,280
2013-1-23,30,20,8,17,8,-3,80,63,53,30.49,30.26,30.17,10,10,10,28,10,32,0.00,2,,272
2013-1-24,23,14,4,8,-2,-6,64,52,34,30.62,30.47,30.23,10,10,10,17,11,23,0.00,1,,90
2013-1-25,39,27,14,22,13,4,73,56,40,30.29,30.14,30.07,10,10,10,23,11,29,0.00,2,,281
2013-1-26,34,20,7,16,8,2,78,58,33,30.38,30.29,30.21,10,10,10,14,7,,0.00,0,,116
2013-1-27,42,35,29,40,29,16,96,84,56,30.20,29.96,29.76,10,4,0,18,11,23,0.22,7,Rain-Snow,146
2013-1-28,52,43,35,51,40,34,95,94,93,29.92,29.81,29.64,7,1,0,15,8,,0.01,8,Fog-Rain-Snow,130
2013-1-29,59,46,33,56,41,32,95,92,81,29.64,29.57,29.47,10,5,1,21,12,36,0.49,7,Rain,317
2013-1-30,33,25,17,32,22,12,96,86,76,29.83,29.61,29.40,10,5,0,31,18,41,0.08,7,Rain-Snow,323
2013-1-31,20,12,2,15,2,-5,83,74,68,30.35,30.08,29.84,10,7,1,31,19,38,0.00,5,Snow,300